STARLINK-1715, 46671

Orbit data source: Space-Track

STARLINK-1715, 46671 is a payload satellite owned by SpaceX/Seattle (US) in LEO that was launched on Sun, 18 Oct 2020 UTC via an FALCON 9 launch vehicle from the Air Force Eastern Test Range (AFETR). Payloads include a variety of satellites, spacecraft, and rockets equipped with specific instruments for various scientific and technological missions. These include communications satellites like Starlink; space stations such as the ISS; scientific satellites like the Hubble; Earth observation satellites from companies like Planet Labs, Umbra, and HawkEye 360; GPS; miniature CubeSats for education and research; and military/defense satellites.

Loading next visibility...
STARLINK-1715 details
Identifier
46671, 2020-073B
Orbit
LEO
Last TLE update17 hours ago
Origin
Flag of USSpaceX/Seattle (US)
ManufacturerSpaceX/Seattle
MissionPartially operational Commercial Communications
Bus & MotorSTARLINK, Unknown motor
Mass260 kg wet, ~248 kg dry
Launch date (UTC)
2020-10-18 (4 years ago)
Launch vehicle
FALCON 9
Launch site
Air Force Eastern Test Range (AFETR)
Object type
Payload
Rocket body
Debris
Shape & HBRBox + 1 Pan, 8.86 m
Radar Cross Section13.562 m², Large (>1 m²)

Expand to show TLE details & history

TLE from 17 hours ago
0 STARLINK-1715
1 46671U 20073B   25044.91668981  .00495222  00000-0  20872-2 0  9994
2 46671  53.0434 161.7612 0009252 290.7660 162.1845 15.83578308  5816
Epoch: 2025-02-13T22:00Z
Definitive object data (Epoch: 2025-02-13T22:00:01.999Z)
Latitude53.0956°
Longitude142.52621°
Altitude332.717 km
Speed7.712 km/s
True Right ascension17h 06m 52s
True Declination52° 55' 11"
Sunlit
Object was in daylight at TLE epoch
Visualization TLE readout
Latitude-18.59052°
Longitude-121.46131°
Altitude323.491 km
Speed7.714 km/s
Apparent Right ascension02h 07m 10s
Apparent Declination-38° 36' 44"
Sunlit
Object is in daylight
Visualization observer readout
Local Sidereal Time17:46:26
Azimuth106.548° ESE
Elevation-48.222°
Doppler factor1
Orbital elements
Apogee altitude326.81 km
Perigee altitude314.415 km
Semi-major axis6,698.749 km
Eccentricity0.0009252
Inclination53.0434°
RAAN161.7612°
Arg. of periapsis290.766°
True anomaly162.2169°
Mean anomaly162.1845°
Eccentric anomaly162.2007°
Mean motion3.9587 °/min
BSTAR0.0020872
Orbital period90.94 mins
Loading maneuver chart data...
Loading historical data...
Loading historical data...
Loading historical data...
Loading historical data...
Loading historical data...
Loading historical data...
Loading historical data...

STARLINK-1715 Visibility forecast

Observer location: undefined°, undefined

Span
Click to sort rows by Start time (UTC) header in descending order
Start Az.
Max El. time (UTC)
Max El. Az.
Max El.
End time (UTC)
End Az.
4 mins2025-02-14 16:14:21.930Z337.991° N2025-02-14 16:16:21.930Z26.933° NE19.511°2025-02-14 16:18:21.930Z78.961° E
|